TimeCST,TemperatureF,Dew PointF,Humidity,Sea Level PressureIn,VisibilityMPH,Wind Direction,Wind SpeedMPH,Gust SpeedMPH,PrecipitationIn,Events,Conditions,WindDirDegrees,DateUTC
12:03 AM,51.8,50.0,94,29.93,0.5,SE,3.5,-,N/A,Fog,Fog,130,2012-12-07 06:03:00
12:15 AM,53.6,51.8,94,29.94,0.2,ESE,4.6,-,N/A,Fog,Fog,110,2012-12-07 06:15:00
12:55 AM,52.0,52.0,100,29.94,0.2,Calm,Calm,-,N/A,Fog,Fog,0,2012-12-07 06:55:00
1:21 AM,53.6,51.8,94,29.92,0.2,Calm,Calm,-,N/A,Fog,Fog,0,2012-12-07 07:21:00
1:30 AM,53.6,51.8,94,29.92,0.2,ESE,3.5,-,N/A,Fog,Fog,120,2012-12-07 07:30:00
1:55 AM,52.0,52.0,100,29.93,0.2,SE,3.5,-,N/A,Fog,Fog,140,2012-12-07 07:55:00
2:14 AM,51.8,51.8,100,29.92,0.2,Calm,Calm,-,N/A,Fog,Fog,0,2012-12-07 08:14:00
2:41 AM,53.6,53.6,100,29.92,0.2,Calm,Calm,-,N/A,Fog,Fog,0,2012-12-07 08:41:00
2:55 AM,53.1,53.1,100,29.93,0.2,Calm,Calm,-,N/A,Fog,Fog,0,2012-12-07 08:55:00
3:06 AM,53.6,51.8,94,29.92,0.2,Calm,Calm,-,N/A,Fog,Fog,0,2012-12-07 09:06:00
3:24 AM,53.6,53.6,100,29.92,0.5,Calm,Calm,-,N/A,Fog,Fog,0,2012-12-07 09:24:00
3:44 AM,53.6,53.6,100,29.91,0.2,Calm,Calm,-,N/A,Fog,Fog,0,2012-12-07 09:44:00
3:55 AM,54.0,53.1,97,29.93,0.2,Calm,Calm,-,N/A,Fog,Fog,0,2012-12-07 09:55:00
4:32 AM,53.6,53.6,100,29.91,0.5,ESE,3.5,-,N/A,Fog,Fog,120,2012-12-07 10:32:00
4:47 AM,53.6,53.6,100,29.91,0.2,SE,4.6,-,N/A,Fog,Fog,140,2012-12-07 10:47:00
4:55 AM,54.0,53.1,97,29.92,0.2,SE,3.5,-,N/A,Fog,Fog,130,2012-12-07 10:55:00
5:11 AM,53.6,53.6,100,29.90,0.2,SE,4.6,-,N/A,Fog,Fog,130,2012-12-07 11:11:00
5:39 AM,53.6,53.6,100,29.91,0.2,SE,3.5,-,N/A,Fog,Fog,140,2012-12-07 11:39:00
5:55 AM,53.1,52.0,96,29.93,0.2,SE,3.5,-,N/A,Fog,Fog,140,2012-12-07 11:55:00
6:05 AM,53.6,51.8,94,29.92,0.5,SE,3.5,-,N/A,Fog,Fog,140,2012-12-07 12:05:00
6:17 AM,53.6,53.6,100,29.92,0.2,SE,3.5,-,N/A,Fog,Fog,140,2012-12-07 12:17:00
6:55 AM,53.1,53.1,100,29.94,0.2,SE,4.6,-,0.01,Fog,Fog,130,2012-12-07 12:55:00
7:55 AM,54.0,54.0,100,29.96,0.2,SSE,4.6,-,N/A,Fog,Fog,150,2012-12-07 13:55:00
8:44 AM,55.4,55.4,100,29.95,0.8,SSE,5.8,-,N/A,,Mist,150,2012-12-07 14:44:00
8:49 AM,55.4,55.4,100,29.95,1.2,SE,4.6,-,N/A,,Overcast,140,2012-12-07 14:49:00
8:51 AM,55.4,55.4,100,29.95,2.0,SE,4.6,-,N/A,,Overcast,140,2012-12-07 14:51:00
8:55 AM,57.0,55.9,96,29.96,3.0,SSE,4.6,-,N/A,,Overcast,150,2012-12-07 14:55:00
9:15 AM,57.2,55.4,94,29.96,10.0,SE,4.6,-,N/A,,Mostly Cloudy,140,2012-12-07 15:15:00
9:55 AM,61.0,57.0,87,29.97,10.0,SE,5.8,-,N/A,,Scattered Clouds,140,2012-12-07 15:55:00
10:55 AM,66.0,59.0,78,29.96,10.0,South,6.9,-,N/A,,Clear,170,2012-12-07 16:55:00
11:55 AM,69.1,60.1,73,29.93,10.0,South,6.9,-,N/A,,Clear,190,2012-12-07 17:55:00
12:41 PM,71.6,60.8,69,29.89,10.0,SW,5.8,-,N/A,,Mostly Cloudy,220,2012-12-07 18:41:00
12:55 PM,71.1,60.1,68,29.90,10.0,Calm,Calm,-,N/A,,Mostly Cloudy,0,2012-12-07 18:55:00
1:25 PM,71.6,60.8,69,29.87,10.0,Calm,Calm,-,N/A,,Scattered Clouds,0,2012-12-07 19:25:00
1:55 PM,72.0,60.1,66,29.87,10.0,Variable,3.5,-,N/A,,Partly Cloudy,0,2012-12-07 19:55:00
2:55 PM,73.0,59.0,61,29.86,10.0,SSE,6.9,-,N/A,,Clear,160,2012-12-07 20:55:00
3:55 PM,73.0,59.0,61,29.86,10.0,South,6.9,-,N/A,,Clear,180,2012-12-07 21:55:00
4:55 PM,69.1,60.1,73,29.87,10.0,SSE,4.6,-,N/A,,Partly Cloudy,150,2012-12-07 22:55:00
5:55 PM,64.0,60.1,87,29.87,10.0,SSE,5.8,-,N/A,,Clear,150,2012-12-07 23:55:00
6:55 PM,64.0,60.1,87,29.89,10.0,SSE,4.6,-,N/A,,Clear,160,2012-12-08 00:55:00
7:55 PM,64.0,61.0,90,29.90,10.0,SSE,6.9,-,N/A,,Scattered Clouds,160,2012-12-08 01:55:00
8:07 PM,64.4,60.8,88,29.89,10.0,South,9.2,-,N/A,,Mostly Cloudy,170,2012-12-08 02:07:00
8:39 PM,64.4,60.8,88,29.89,10.0,SSE,6.9,-,N/A,,Scattered Clouds,160,2012-12-08 02:39:00
8:55 PM,63.0,60.1,90,29.90,10.0,SSE,6.9,-,N/A,,Scattered Clouds,150,2012-12-08 02:55:00
9:11 PM,62.6,60.8,94,29.90,10.0,SSE,5.8,-,N/A,,Mostly Cloudy,160,2012-12-08 03:11:00
9:55 PM,64.0,60.1,87,29.91,10.0,SSE,6.9,-,N/A,,Overcast,160,2012-12-08 03:55:00
10:17 PM,62.6,60.8,94,29.91,10.0,SSE,4.6,-,N/A,,Scattered Clouds,160,2012-12-08 04:17:00
10:55 PM,63.0,60.1,90,29.91,10.0,SSE,3.5,-,N/A,,Overcast,160,2012-12-08 04:55:00
11:55 PM,63.0,60.1,90,29.91,10.0,SSE,6.9,-,N/A,,Overcast,160,2012-12-08 05:55:00